This demonstration page uses our WeatherBlox Daily Observations layout. Learn more.

Left ArrowRight Arrow

41.86663, -103.66717

Hourly Observations for February 18, 2016

Temp ( °F °C ) Dew Point ( °F °C ) Humidity (%) Winds ( mph kmh ) Pressure ( in mb ) Visibility ( mi km ) Precip ( " mm )
12:53 am 00:53 Clear 41 5 32 undefined 70 70 E 8 13 29.66 1004 10 16 N/A
1:53 am 01:53 Clear 38 3.3 31 -0.6 76 76 E 8 13 29.63 1003 10 16 N/A
2:53 am 02:53 Clear 36 2.2 30 -1.1 79 79 ESE 7 11 29.60 1002 10 16 N/A
3:53 am 03:53 Clear 33 0.6 28 -2.2 82 82 ESE 3 6 29.59 1002 10 16 N/A
4:53 am 04:53 Clear 35 1.7 29 -1.7 78 78 E 7 11 29.58 1002 10 16 N/A
5:53 am 05:53 Clear 31 -0.6 27 -2.8 85 85 N N/A 29.61 1003 10 16 N/A
6:53 am 06:53 Sunny 30 -1.1 27 -2.8 88 88 WNW 7 11 29.64 1004 10 16 N/A
7:53 am 07:53 Sunny 38 3.3 32 undefined 79 79 N 6 9 29.61 1003 10 16 N/A
8:53 am 08:53 Sunny 44 6.7 32 undefined 63 63 ESE 5 7 29.58 1002 10 16 N/A
9:53 am 09:53 Sunny 68 20 27 -2.8 21 21 SW 29 46 29.48 998 10 16 N/A
10:53 am 10:53 Sunny 71 21.7 30 -1.1 22 22 W 26 43 29.47 998 10 16 N/A
11:53 am 11:53 Sunny 69 20.6 30 -1.1 23 23 W 14 22 29.44 997 10 16 N/A
12:53 pm 12:53 Sunny 71 21.7 29 -1.7 21 21 W 20 31 29.43 997 10 16 N/A
1:53 pm 13:53 Sunny 70 21.1 30 -1.1 23 23 NW 10 17 29.41 996 10 16 N/A
2:53 pm 14:53 Sunny 72 22.2 30 -1.1 21 21 W 21 33 29.38 995 10 16 N/A
3:53 pm 15:53 Sunny 74 23.3 29 -1.7 19 19 W 15 24 29.34 994 10 16 N/A
4:53 pm 16:53 Sunny 71 21.7 24 -4.4 17 17 W 30 48 29.33 993 10 16 N/A
5:53 pm 17:53 Clear 66 18.9 24 -4.4 20 20 W 13 20 29.35 994 10 16 N/A
6:30 pm 18:30 Mostly Clear 57 14 34 1 41 41 W 32 52 29.38 995 8 13 N/A
6:53 pm 18:53 Clear 54 12.2 35 1.7 49 49 W 25 41 29.48 998 10 16 N/A
7:53 pm 19:53 Clear 50 10 24 -4.4 36 36 W 35 56 29.52 1000 10 16 N/A
8:53 pm 20:53 Mostly Clear 50 10 21 -6.1 32 32 W 36 57 29.56 1001 10 16 N/A
9:53 pm 21:53 Clear 47 8.3 19 -7.2 33 33 W 37 59 29.53 1000 10 16 N/A
10:53 pm 22:53 Clear 46 7.8 19 -7.2 34 34 W 32 52 29.59 1002 10 16 N/A
11:53 pm 23:53 Clear 44 6.7 20 -6.7 38 38 W 31 50 29.63 1004 10 16 N/A

Powered by AerisWeather